User: anonymous   Login
Location: Unspecified
(0.0000°N, 0.0000°E)
Time: 22:09:45
(UTC+00:00)
Language:

COMSATBw-1 - Orbit

View from above orbital plane
View from above orbital plane
View from above satellite
View from above satellite

Ground track
Ground track

The orbit data is extracted from the following two-line orbital elements,

1 35943U 09054B   20086.30743876  .00000019  00000-0  00000+0 0  9995
2 35943   0.0351 114.1862 0003270 279.1255 324.5919  1.00276923 38465
Epoch (UTC): 26 March 2020 07:22:42
Eccentricity: 0.0003270
inclination: 0.0351°
perigee height: 35771 km
apogee height: 35798 km
right ascension of ascending node: 114.1862°
argument of perigee: 279.1255°
revolutions per day: 1.00276923
mean anomaly at epoch: 324.5919°
orbit number at epoch: 3846

The dashed part of the orbit path shows where the satellite is in the earth's shadow,  

DLR